Location: *
(48.9888°S, 176.6321°W)
Time: 13:19:35
(UTC+00:00)

Daily predictions for brighter satellites

Satellite Brightness Start Highest point End
(mag) Time Altitude Azimuth Time Altitude Azimuth Time Altitude Azimuth
USA 59 Rocket 2.5 12:16:57 55° SW 12:17:27 55° SSW 12:27:42 10° SE
ATLAS CENTAUR R/B 4.5 13:09:22 40° SW 13:12:44 53° S 13:20:56 10° ESE
Cosmos 2369 Rocket 4.3 13:21:55 20° S 13:21:55 20° S 13:24:12 10° SSE
Cosmos 2263 Rocket 4.3 13:28:29 10° S 13:32:54 23° SE 13:37:16 10° E
NOSS 3-4 (A) 4.2 13:43:44 70° S 13:43:44 70° S 13:50:57 10° SE
NOSS 3-4 (C) 4.2 13:43:50 70° S 13:43:50 70° S 13:51:02 10° SE
Cosmos 2227 Rocket 4.2 13:40:28 10° SSW 13:42:24 21° SSW 13:42:24 21° SSW
USA 59 Rocket 3.2 14:03:15 19° WSW 14:10:02 37° S 14:19:00 10° ESE
CZ-2C R/B 3.6 14:05:03 10° SSE 14:09:41 45° ESE 14:09:41 45° ESE
USA 234 4.0 14:14:27 10° E 14:20:42 48° S 14:23:10 33° SW
Cosmos 1697 Rocket 3.2 14:24:54 55° ESE 14:24:54 55° ESE 14:29:44 10° SE
Cosmos 2366 rocket 4.1 14:36:20 67° NE 14:36:48 70° E 14:43:01 10° SSE
Cosmos 2219 3.5 14:32:29 10° SSW 14:38:09 64° ESE 14:43:44 10° NE
ATLAS 3B R/B 4.1 14:34:54 10° SW 14:40:22 30° SSE 14:45:48 10° E
Cosmos 2082 4.3 14:42:27 10° SSW 14:48:02 54° SE 14:53:34 10° NE
H-2A R/B 2.2 14:48:58 73° SSE 14:48:58 73° SSE 14:53:50 10° SSW
Meteor 2-13 Rocket 4.5 14:43:08 10° S 14:49:25 79° E 14:51:21 47° NNE
Cosmos 1727 Rocket 4.3 14:51:31 10° S 14:57:56 66° ESE 15:04:15 10° NNE
NOSS 3-1 (C) 3.6 14:51:04 10° SW 14:57:59 70° SE 15:03:27 10° NE
Cosmos 2218 Rocket 3.8 14:59:17 71° NNW 15:00:02 85° W 15:06:20 10° S
Cosmos 2341 Rocket 3.9 15:00:53 68° W 15:01:09 69° WSW 15:07:35 10° S
Cosmos 2058 3.9 15:03:27 42° SSE 15:03:27 42° SSE 15:06:18 10° SSE
RESURS DK-1 4.0 15:04:10 26° S 15:04:10 26° S 15:06:21 10° SSE
ATLAS CENTAUR R/B 4.0 14:54:15 11° WSW 15:03:46 62° SSE 15:10:44 10° E
Cosmos 1782 4.0 15:04:13 10° S 15:06:45 36° SSE 15:06:45 36° SSE
BlueWalker 3 3.1 15:11:27 39° SSE 15:11:27 39° SSE 15:14:30 10° ESE
Cosmos 2058 Rocket 4.0 15:10:51 10° SSW 15:13:35 37° SSW 15:13:35 37° SSW
Cosmos 2263 Rocket 2.0 15:11:52 10° SSW 15:17:32 84° WNW 15:23:08 10° NNE
BREEZE-M DEB (TANK) 3.0 15:19:07 50° NNE 15:19:07 50° NNE 15:25:02 10° E
Cosmos 1500 4.3 15:20:32 34° ENE 15:20:50 35° E 15:23:59 10° SSE
Cosmos 1666 4.3 15:20:15 24° ENE 15:21:14 29° E 15:24:15 10° SSE
Thor Agena Rocket 3.7 15:22:12 56° WSW 15:22:12 56° WSW 15:26:59 10° SSW
Alouette 2 Rocket 4.1 15:21:20 41° NE 15:22:14 51° E 15:25:48 10° SSE
Cosmos 1980 Rocket 2.2 15:23:22 49° NNW 15:25:00 84° ENE 15:30:47 10° SSE
USA 267 4.1 15:21:46 10° ESE 15:28:02 43° NE 15:31:55 22° NNW
DNEPR-1 R/B 4.3 15:26:54 41° N 15:28:08 53° ENE 15:33:14 10° SE
Cosmos 1238 Rocket 3.1 15:24:51 10° S 15:28:51 76° E 15:33:28 10° NNE
Cosmos 1992 Rocket 3.9 15:28:30 60° WNW 15:29:20 73° WSW 15:34:38 10° SSE
Lacrosse 4 Rocket 4.4 15:32:33 10° SSE 15:33:24 11° SSE 15:34:15 10° SE
Cosmos 1939 Rocket 3.1 15:35:35 52° SSW 15:35:35 52° SSW 15:38:39 10° SSW
Meteor 2-2 Rocket 4.3 15:29:02 10° S 15:34:50 81° ESE 15:40:42 10° NNE
Cosmos 1821 Rocket 3.9 15:31:48 31° NNW 15:35:02 77° W 15:41:31 10° S
CBERS-1 3.9 15:31:11 10° NNE 15:36:20 81° WNW 15:41:35 10° SSW
USA 281 4.4 15:31:06 10° SE 15:37:18 40° ENE 15:43:26 10° N
Cosmos 1777 Rocket 4.3 15:34:06 10° SSW 15:39:25 67° ESE 15:44:38 10° NNE
Cosmos 1933 3.2 15:36:44 10° S 15:40:46 87° E 15:43:40 18° N
SL-16 R/B 2.8 15:35:48 10° SSE 15:42:02 68° ENE 15:48:13 10° N
Cosmos 1758 Rocket 4.0 15:40:57 17° N 15:44:13 62° E 15:48:34 10° SSE
BREEZE M DEB (TANK) 2.5 15:44:54 42° ESE 15:44:54 42° ESE 15:47:03 10° E
SL-08 R/B 4.4 15:39:21 11° N 15:45:16 87° E 15:51:30 10° S
Cosmos 332 Rocket 3.9 15:40:26 10° SSW 15:45:23 77° ESE 15:50:14 10° NNE
Cosmos 2239 Rocket 4.4 15:40:21 13° N 15:46:00 90° N 15:52:22 10° S
BREEZE-M DEB (TANK) 4.3 15:45:42 29° NNW 15:48:30 60° NE 16:09:40 10° ESE
CZ-2C R/B 3.5 15:45:38 10° S 15:50:31 31° WSW 15:51:10 30° WSW
H-2A R/B 2.9 15:49:23 10° NNE 15:52:22 53° ESE 15:55:25 10° S
Cosmos 1340 Rocket 3.2 15:51:14 10° S 15:55:13 65° ESE 15:59:10 10° NNE
Meteor 1-28 Rocket 3.1 15:53:34 10° S 15:57:10 56° WSW 15:57:26 55° W
Cosmos 1000 Rocket 4.4 15:51:10 10° SSW 15:57:22 68° W 16:03:29 10° N
Cosmos 1484 Rocket 3.7 15:59:16 30° SW 15:59:16 30° SW 16:01:35 10° SSW
GP-B 3.6 15:57:50 10° S 16:02:19 64° E 16:06:44 10° N
USA 59 Rocket 3.1 15:53:10 10° SW 16:03:00 41° SSE 16:11:19 10° E
USA 234 3.3 15:56:45 10° ENE 16:03:20 81° SSE 16:09:58 10° SW
Meteor 2-19 Rocket 4.4 16:00:02 10° S 16:06:19 85° W 16:12:29 10° N
Cosmos 1697 Rocket 3.7 16:06:37 25° WSW 16:08:27 29° SW 16:13:26 10° SSE
NOAA 12 4.0 16:03:13 10° NNE 16:08:34 80° WNW 16:14:00 10° SSW
Meteor 1-26 Rocket 4.1 16:03:43 10° SSW 16:09:18 81° W 16:14:58 10° N
Cosmos 1862 3.1 16:08:14 25° NNW 16:10:23 67° W 16:14:20 10° S
Cosmos 1503 Rocket 3.9 16:06:00 10° SSW 16:11:13 63° WNW 16:16:20 10° N
SL-08 RB Rocket 3.7 16:07:17 10° N 16:11:45 60° W 16:16:19 10° SSW
ARGOS 3.4 16:07:52 10° N 16:13:06 47° W 16:18:25 10° SSW
USA 276 1.8 16:13:56 52° SE 16:13:56 52° SE 16:15:46 10° ESE
Cosmos 1354 Rocket 3.9 16:08:26 10° SSW 16:13:46 79° WNW 16:19:02 10° NNE
Cosmos 2360 Rocket 4.3 16:09:37 10° NNE 16:14:20 28° ENE 16:19:04 10° SE
Cosmos 521 Rocket 4.4 16:12:32 18° NW 16:17:30 84° SW 16:23:53 10° SE
NOSS 3-1 (A) 3.2 16:10:54 10° SW 16:17:39 78° NW 16:22:59 10° NNE
BREEZE M DEB (TANK) 3.2 16:16:40 21° NNW 16:17:56 33° NE 16:22:03 10° ESE
Cosmos-2242 3.5 16:15:29 10° SSW 16:19:22 34° W 16:22:46 12° NNW
Meteor 2-3 Rocket 3.8 16:15:09 11° NNW 16:20:43 58° WSW 16:26:25 10° S
IRS-1C 4.1 16:15:40 10° N 16:21:01 74° WNW 16:26:28 10° SSW
Cosmos 2219 4.1 16:17:24 10° SW 16:21:49 24° WNW 16:26:13 10° NNW
Cosmos 1825 Rocket 4.1 16:18:22 10° N 16:22:39 61° E 16:27:00 10° SSE
ATLAS 2AS CENTAUR R/B 2.7 16:16:54 15° NW 16:22:49 90° SSW 16:30:02 10° SE
ARIANE 5 R/B 2.4 16:20:14 10° N 16:25:14 71° WNW 16:30:20 10° SSW
Cosmos 2322 Rocket 3.4 16:22:31 10° N 16:27:47 42° ENE 16:33:07 10° SE
H-2A R/B 3.6 16:29:30 16° WSW 16:29:30 16° WSW 16:31:54 10° SW
Cosmos 2082 4.5 16:27:02 10° SW 16:31:48 28° WNW 16:36:32 10° NNW
ATLAS 3B R/B 2.5 16:25:32 10° SW 16:31:48 87° SE 16:38:07 10° NE
IRS-P3 4.1 16:27:05 10° N 16:32:28 76° WNW 16:37:54 10° SSW
Cosmos 1602 3.5 16:36:14 10° NNW 16:39:52 75° W 16:43:34 10° S
Cosmos 1844 Rocket 2.7 16:35:13 10° SSW 16:40:53 87° WNW 16:46:30 10° NNE
Iridium 921 4.3 16:41:50 10° NNW 16:45:08 65° W 16:48:31 10° S
Cosmos 2369 4.3 16:42:13 15° WNW 16:46:34 38° SW 16:51:56 10° SSE
NOSS 3-1 (C) 4.2 16:42:59 10° WSW 16:48:00 25° WNW 16:52:16 10° NNW
ADEOS Rocket 4.1 16:41:15 10° NNE 16:48:56 65° ESE 16:56:15 10° S
BlueWalker 3 2.1 16:45:40 12° WSW 16:49:15 69° SSE 16:53:03 10° ENE
CZ-2D R/B 3.0 16:46:14 10° N 16:49:48 70° W 16:53:26 10° SSW
Cosmos 1602 Rocket 4.2 16:46:46 10° NW 16:50:49 35° WSW 16:54:53 10° S
Cosmos 2151 3.0 16:47:37 10° N 16:51:54 87° E 16:56:15 10° S
SL-16 R/B 2.2 16:46:58 10° NNW 16:52:41 85° WSW 16:58:28 10° SSE
Okean 1-7 Rocket 4.2 16:49:03 10° NW 16:53:07 35° WSW 16:57:15 10° S
ATLAS CENTAUR R/B 3.4 16:44:33 10° SW 16:53:22 62° NW 16:59:14 10° NNE
CZ-2D R/B 3.3 16:49:57 10° N 16:53:53 64° WNW 16:57:51 10° SSW
Cosmos 2278 3.7 16:48:40 10° NW 16:54:22 70° WSW 17:00:08 10° SSE
Cosmos 1666 3.9 16:53:31 14° WNW 16:55:13 19° WSW 16:57:48 10° SSW
UNK 4.3 16:51:42 10° S 16:56:01 38° WSW 17:00:18 10° NW
CORIOLIS 4.4 16:50:59 10° NNE 16:56:21 75° ESE 17:01:47 10° SSW
Cosmos 2333 Rocket 3.1 16:51:02 10° N 16:56:32 53° ENE 17:02:05 10° SE
Cosmos 1934 Rocket 4.3 16:51:12 10° NNW 16:57:17 46° WSW 17:03:22 10° S
SJ-12 4.2 16:56:22 10° N 17:00:10 43° W 17:04:03 10° SSW
Cosmos 2263 Rocket 3.6 16:57:39 10° WSW 17:00:33 14° W 17:03:25 10° NW
USA 229 DEB 3.8 16:53:49 10° SW 17:00:39 74° SE 17:06:46 10° NE
USA 229 3.8 16:54:01 10° SW 17:00:50 73° SE 17:07:00 10° NE
Cosmos 1898 Rocket 4.0 16:59:16 10° SSW 17:04:31 67° ESE 17:09:45 10° NNE
USA 308 0.8 17:03:05 13° WSW 17:04:38 43° NW 17:05:54 10° NE
Cosmos 1980 Rocket 3.5 17:05:13 10° W 17:09:44 23° SW 17:14:18 10° S
Cosmos 2221 3.1 17:06:02 10° SSW 17:10:01 36° W 17:14:00 10° NNW
Cosmos 2346 Rocket 4.5 17:04:46 10° S 17:10:59 80° W 17:17:12 10° N
USA 267 3.4 17:04:41 10° SE 17:11:19 76° SSW 17:17:54 10° WNW
Lacrosse 4 Rocket 2.5 17:08:44 10° SSW 17:12:37 45° SE 17:16:28 10° NE
AQUARIUS 4.4 17:11:43 10° NNE 17:16:13 80° ESE 17:20:46 10° SSW
Cosmos 1953 Rocket 3.7 17:15:34 10° NNW 17:20:02 59° WSW 17:24:33 10° S
USA 281 3.5 17:15:33 10° SSE 17:21:55 51° SW 17:28:16 10° NW
